UAL1221 KLAX-KSFO

Flight info

Callsign UAL1221
Flight time N/A
Altitude 38000
Route SUMMR2 STOKD SERFR SERFR4
Aircraft B772/H-SDE2E3FGHIJ5LORVWXY/LB1D1

Departure

Time 2026-04-20 20:56
Airport Los Angeles International Airport (KLAX)

Arrival

Time N/A
Airport San Francisco International Airport (KSFO)
Time Latitude Longitude Altitude Speed Heading
2026-04-20 20:18 33.94105 -118.39898 132 ft 0 kts 306°
2026-04-20 20:45 33.94104 -118.39896 132 ft 1 kts 306°
2026-04-20 20:45 33.94098 -118.39880 132 ft 2 kts 276°
2026-04-20 20:45 33.94098 -118.39862 132 ft 2 kts 251°
2026-04-20 20:46 33.94105 -118.39846 131 ft 2 kts 226°
2026-04-20 20:46 33.94118 -118.39835 131 ft 2 kts 200°
2026-04-20 20:46 33.94132 -118.39831 131 ft 1 kts 176°
2026-04-20 20:46 33.94138 -118.39832 132 ft 1 kts 172°
2026-04-20 20:47 33.94139 -118.39832 132 ft 0 kts 172°
2026-04-20 20:51 33.94120 -118.39829 131 ft 4 kts 173°
2026-04-20 20:51 33.94070 -118.39828 131 ft 8 kts 180°
2026-04-20 20:51 33.93996 -118.39820 128 ft 10 kts 171°
2026-04-20 20:51 33.93929 -118.39791 127 ft 12 kts 141°
2026-04-20 20:52 33.93910 -118.39695 125 ft 14 kts 84°
2026-04-20 20:52 33.93925 -118.39550 121 ft 19 kts 83°
2026-04-20 20:52 33.93942 -118.39377 119 ft 22 kts 83°
2026-04-20 20:52 33.93962 -118.39177 117 ft 25 kts 83°
2026-04-20 20:53 33.93985 -118.38958 116 ft 27 kts 83°
2026-04-20 20:53 33.94009 -118.38721 114 ft 29 kts 83°
2026-04-20 20:53 33.94033 -118.38490 113 ft 26 kts 83°
2026-04-20 20:53 33.94048 -118.38340 112 ft 15 kts 82°
2026-04-20 20:54 33.94063 -118.38203 111 ft 17 kts 83°
2026-04-20 20:54 33.94073 -118.38095 110 ft 6 kts 83°
2026-04-20 20:54 33.94076 -118.38070 110 ft 1 kts 83°
2026-04-20 20:54 33.94076 -118.38048 110 ft 3 kts 97°
2026-04-20 20:55 33.94060 -118.38013 110 ft 5 kts 142°
2026-04-20 20:55 33.94013 -118.38001 109 ft 7 kts 189°
2026-04-20 20:55 33.93981 -118.38052 110 ft 8 kts 261°
2026-04-20 20:55 33.93972 -118.38148 110 ft 26 kts 264°
2026-04-20 20:56 33.93909 -118.38750 114 ft 113 kts 263°
2026-04-20 20:56 33.93788 -118.39950 235 ft 168 kts 263°
2026-04-20 20:56 33.93608 -118.41351 979 ft 175 kts 259°
2026-04-20 20:56 33.93465 -118.42908 1370 ft 198 kts 265°
2026-04-20 20:57 33.93312 -118.44682 1672 ft 225 kts 263°
2026-04-20 20:57 33.93079 -118.46666 2185 ft 242 kts 262°
2026-04-20 20:57 33.92910 -118.48753 2705 ft 258 kts 265°
2026-04-20 20:57 33.92754 -118.50908 3431 ft 264 kts 265°
2026-04-20 20:58 33.92580 -118.53117 4220 ft 267 kts 264°
2026-04-20 20:58 33.92399 -118.55331 4809 ft 271 kts 264°
2026-04-20 20:58 33.92210 -118.57607 4951 ft 272 kts 263°
2026-04-20 20:58 33.92020 -118.59892 4965 ft 271 kts 264°
2026-04-20 20:59 33.91833 -118.62159 4968 ft 271 kts 264°
2026-04-20 20:59 33.91774 -118.63556 4972 ft 271 kts 268°